カタログに戻る

SKYMED 2

運用中科学SSO
NORAD 32376·PAYLOAD·🇮🇹 Italy

打ち上げ Dec 9, 2007 から Vandenberg Space Force Base

Loading…

次のパス (今後24時間)

TLE

最新Source: Space-Track

元期: Sep 14, 2026, 14:42 UTC

1 32376U 07059A   26257.61253469  .00000269  00000-0  40306-4 0  9994
2 32376  97.8916  79.9360 0001333  90.0462 270.0904 14.82149394 15258

AllMySatでSKYMED 2をリアルタイム追跡

Download on the App Store